Time,TemperatureF,DewpointF,PressureIn,WindDirection,WindDirectionDegrees,WindSpeedMPH,WindSpeedGustMPH,Humidity,HourlyPrecipIn,Conditions,Clouds,dailyrainin,SoftwareType,DateUTC
2013-08-29 00:00:00,77.5,71.0,29.93,South,190,1.2,1.2,81,0.00,,,0.00,TxWx,2013-08-29 05:00:00,
2013-08-29 00:06:00,77.5,72.0,29.93,SE,145,0.6,0.6,81,0.00,,,0.00,TxWx,2013-08-29 05:06:00,
2013-08-29 00:11:00,77.5,71.0,29.93,South,190,0.6,1.2,81,0.00,,,0.00,TxWx,2013-08-29 05:11:00,
2013-08-29 00:16:00,77.5,71.0,29.93,North,10,0.0,1.2,82,0.00,,,0.00,TxWx,2013-08-29 05:16:00,
2013-08-29 00:21:00,77.5,71.0,29.93,WSW,257,0.6,1.2,82,0.00,,,0.00,TxWx,2013-08-29 05:21:00,
2013-08-29 00:26:00,77.4,71.0,29.93,NNE,32,0.6,0.6,82,0.00,,,0.00,TxWx,2013-08-29 05:26:00,
2013-08-29 00:31:00,77.4,71.0,29.93,East,100,0.6,0.6,82,0.00,,,0.00,TxWx,2013-08-29 05:31:00,
2013-08-29 00:36:00,77.3,71.0,29.93,ENE,77,0.0,1.2,82,0.00,,,0.00,TxWx,2013-08-29 05:36:00,
2013-08-29 00:41:00,77.3,71.0,29.93,East,100,0.0,0.6,82,0.00,,,0.00,TxWx,2013-08-29 05:41:00,
2013-08-29 00:46:00,77.3,71.0,29.93,North,10,0.0,0.6,82,0.00,,,0.00,TxWx,2013-08-29 05:46:00,
2013-08-29 00:51:00,77.2,71.0,29.92,WNW,302,0.6,0.6,82,0.00,,,0.00,TxWx,2013-08-29 05:51:00,
2013-08-29 00:56:00,77.1,71.0,29.92,ENE,77,0.6,1.2,82,0.00,,,0.00,TxWx,2013-08-29 05:56:00,
2013-08-29 01:01:00,77.1,71.0,29.92,ENE,77,0.0,0.6,82,0.00,,,0.00,TxWx,2013-08-29 06:01:00,
2013-08-29 01:06:00,77.0,71.0,29.93,NE,55,0.0,0.6,82,0.00,,,0.00,TxWx,2013-08-29 06:06:00,
2013-08-29 01:11:00,77.0,71.0,29.93,NE,55,0.0,0.6,82,0.00,,,0.00,TxWx,2013-08-29 06:11:00,
2013-08-29 01:17:00,76.9,71.0,29.93,ENE,77,0.0,0.6,82,0.00,,,0.00,TxWx,2013-08-29 06:17:00,
2013-08-29 01:22:00,76.9,71.0,29.93,NNE,32,0.0,0.0,82,0.00,,,0.00,TxWx,2013-08-29 06:22:00,
2013-08-29 01:27:00,76.8,71.0,29.93,North,10,0.0,0.6,83,0.00,,,0.00,TxWx,2013-08-29 06:27:00,
2013-08-29 01:32:00,76.6,71.0,29.93,NNW,347,0.0,0.6,83,0.00,,,0.00,TxWx,2013-08-29 06:32:00,
2013-08-29 01:37:00,76.4,71.0,29.92,North,10,0.0,0.6,84,0.00,,,0.00,TxWx,2013-08-29 06:37:00,
2013-08-29 01:42:00,76.1,71.0,29.92,NNE,32,0.0,0.0,84,0.00,,,0.00,TxWx,2013-08-29 06:42:00,
2013-08-29 01:47:00,76.0,71.0,29.92,NE,55,0.0,0.6,85,0.00,,,0.00,TxWx,2013-08-29 06:47:00,
2013-08-29 01:52:00,75.9,71.0,29.92,NE,55,0.0,0.0,85,0.00,,,0.00,TxWx,2013-08-29 06:52:00,
2013-08-29 01:57:00,75.8,71.0,29.92,NNE,32,0.0,0.6,85,0.00,,,0.00,TxWx,2013-08-29 06:57:00,
2013-08-29 02:02:00,75.8,71.0,29.92,NE,55,0.0,1.2,85,0.00,,,0.00,TxWx,2013-08-29 07:02:00,
2013-08-29 02:07:00,75.7,71.0,29.92,NNE,32,0.0,0.6,85,0.00,,,0.00,TxWx,2013-08-29 07:07:00,
2013-08-29 02:12:00,75.6,71.0,29.92,NNE,32,0.0,0.6,86,0.00,,,0.00,TxWx,2013-08-29 07:12:00,
2013-08-29 02:17:00,75.5,71.0,29.92,NNE,32,0.0,0.6,86,0.00,,,0.00,TxWx,2013-08-29 07:17:00,
2013-08-29 02:22:00,75.4,71.0,29.92,NNE,32,0.6,0.6,86,0.00,,,0.00,TxWx,2013-08-29 07:22:00,
2013-08-29 02:27:00,75.4,71.0,29.92,NNE,32,0.0,0.0,86,0.00,,,0.00,TxWx,2013-08-29 07:27:00,
2013-08-29 02:32:00,75.2,71.0,29.92,NE,55,0.0,0.6,86,0.00,,,0.00,TxWx,2013-08-29 07:32:00,
2013-08-29 02:37:00,75.1,71.0,29.92,NNW,347,0.6,0.6,87,0.00,,,0.00,TxWx,2013-08-29 07:37:00,
2013-08-29 02:42:00,75.0,71.0,29.92,NE,55,0.0,0.6,87,0.00,,,0.00,TxWx,2013-08-29 07:42:00,
2013-08-29 02:47:00,75.0,71.0,29.92,NNE,32,0.0,0.0,88,0.00,,,0.00,TxWx,2013-08-29 07:47:00,
2013-08-29 02:52:00,74.9,71.0,29.92,North,10,0.0,0.6,88,0.00,,,0.00,TxWx,2013-08-29 07:52:00,
2013-08-29 02:57:00,74.8,71.0,29.92,NNE,32,0.0,0.0,88,0.00,,,0.00,TxWx,2013-08-29 07:57:00,
2013-08-29 03:02:00,74.8,71.0,29.92,NNE,32,0.0,0.0,88,0.00,,,0.00,TxWx,2013-08-29 08:02:00,
2013-08-29 03:07:00,74.8,71.0,29.92,North,10,0.0,0.0,88,0.00,,,0.00,TxWx,2013-08-29 08:07:00,
2013-08-29 03:12:00,74.7,71.0,29.92,NNW,347,0.0,1.2,88,0.00,,,0.00,TxWx,2013-08-29 08:12:00,
2013-08-29 03:17:00,74.6,71.0,29.92,NW,325,0.0,0.6,88,0.00,,,0.00,TxWx,2013-08-29 08:17:00,
2013-08-29 03:22:00,74.6,71.0,29.92,North,10,0.0,0.6,89,0.00,,,0.00,TxWx,2013-08-29 08:22:00,
2013-08-29 03:27:00,74.4,70.0,29.92,NNE,32,0.0,0.6,89,0.00,,,0.00,TxWx,2013-08-29 08:27:00,
2013-08-29 03:32:00,74.3,71.0,29.92,North,10,0.0,0.6,89,0.00,,,0.00,TxWx,2013-08-29 08:32:00,
2013-08-29 03:37:00,74.3,71.0,29.92,NNE,32,0.0,0.6,90,0.00,,,0.00,TxWx,2013-08-29 08:37:00,
2013-08-29 03:42:00,74.2,71.0,29.92,East,100,0.0,0.6,90,0.00,,,0.00,TxWx,2013-08-29 08:42:00,
2013-08-29 03:47:00,74.2,71.0,29.92,NNE,32,0.0,0.6,90,0.00,,,0.00,TxWx,2013-08-29 08:47:00,
2013-08-29 03:53:00,74.1,71.0,29.91,NNW,347,0.6,1.9,90,0.00,,,0.00,TxWx,2013-08-29 08:53:00,
2013-08-29 03:58:00,74.1,71.0,29.91,NNW,347,0.0,1.2,90,0.00,,,0.00,TxWx,2013-08-29 08:58:00,
2013-08-29 04:03:00,74.2,71.0,29.91,NNW,347,0.0,0.6,90,0.00,,,0.00,TxWx,2013-08-29 09:03:00,
2013-08-29 04:08:00,74.2,71.0,29.91,NNW,347,0.0,0.6,90,0.00,,,0.00,TxWx,2013-08-29 09:08:00,
2013-08-29 04:13:00,74.2,71.0,29.91,North,10,0.6,1.2,90,0.00,,,0.00,TxWx,2013-08-29 09:13:00,
2013-08-29 04:18:00,74.2,71.0,29.91,NNW,347,0.6,1.2,90,0.00,,,0.00,TxWx,2013-08-29 09:18:00,
2013-08-29 04:23:00,74.3,71.0,29.91,NNW,347,0.0,1.2,90,0.00,,,0.00,TxWx,2013-08-29 09:23:00,
2013-08-29 04:28:00,74.3,71.0,29.91,North,10,0.0,0.6,89,0.00,,,0.00,TxWx,2013-08-29 09:28:00,
2013-08-29 04:33:00,74.3,71.0,29.91,NNE,32,0.0,0.0,89,0.00,,,0.00,TxWx,2013-08-29 09:33:00,
2013-08-29 04:38:00,74.3,71.0,29.91,NW,325,0.6,0.6,89,0.00,,,0.00,TxWx,2013-08-29 09:38:00,
2013-08-29 04:43:00,74.3,71.0,29.91,SW,235,0.6,0.6,89,0.00,,,0.00,TxWx,2013-08-29 09:43:00,
2013-08-29 04:48:00,74.3,71.0,29.91,North,10,0.6,0.6,89,0.00,,,0.00,TxWx,2013-08-29 09:48:00,
2013-08-29 04:53:00,74.3,71.0,29.91,NNE,32,0.0,1.2,89,0.00,,,0.00,TxWx,2013-08-29 09:53:00,
2013-08-29 04:58:00,74.3,71.0,29.91,North,10,0.0,0.6,89,0.00,,,0.00,TxWx,2013-08-29 09:58:00,
2013-08-29 05:03:00,74.2,71.0,29.91,NNE,32,0.0,0.0,89,0.00,,,0.00,TxWx,2013-08-29 10:03:00,
2013-08-29 05:08:00,74.2,71.0,29.91,North,10,0.0,0.6,89,0.00,,,0.00,TxWx,2013-08-29 10:08:00,
2013-08-29 05:13:00,74.1,71.0,29.91,North,10,0.6,1.9,89,0.00,,,0.00,TxWx,2013-08-29 10:13:00,
2013-08-29 05:18:00,74.0,71.0,29.91,NNE,32,0.0,0.0,90,0.00,,,0.00,TxWx,2013-08-29 10:18:00,
2013-08-29 05:23:00,74.0,71.0,29.91,NNE,32,0.0,0.0,90,0.00,,,0.00,TxWx,2013-08-29 10:23:00,
2013-08-29 05:28:00,74.0,71.0,29.91,NNE,32,0.0,0.0,90,0.00,,,0.00,TxWx,2013-08-29 10:28:00,
2013-08-29 05:33:00,74.0,71.0,29.91,NE,55,0.0,0.0,90,0.00,,,0.00,TxWx,2013-08-29 10:33:00,
2013-08-29 05:38:00,73.9,71.0,29.91,NNE,32,0.0,0.0,90,0.00,,,0.00,TxWx,2013-08-29 10:38:00,
2013-08-29 05:43:00,73.8,71.0,29.91,NNW,347,0.6,0.6,90,0.00,,,0.00,TxWx,2013-08-29 10:43:00,
2013-08-29 05:48:00,73.8,71.0,29.91,North,10,0.0,0.6,90,0.00,,,0.00,TxWx,2013-08-29 10:48:00,
2013-08-29 05:53:00,73.8,71.0,29.91,NE,55,0.0,0.6,90,0.00,,,0.00,TxWx,2013-08-29 10:53:00,
2013-08-29 05:58:00,73.7,71.0,29.91,NE,55,0.0,0.6,90,0.00,,,0.00,TxWx,2013-08-29 10:58:00,
2013-08-29 06:03:00,73.7,71.0,29.91,NE,55,0.0,0.6,90,0.00,,,0.00,TxWx,2013-08-29 11:03:00,
2013-08-29 06:08:00,73.6,71.0,29.91,North,10,0.0,0.6,90,0.00,,,0.00,TxWx,2013-08-29 11:08:00,
2013-08-29 06:13:00,73.6,71.0,29.91,North,10,0.0,0.6,91,0.00,,,0.00,TxWx,2013-08-29 11:13:00,
2013-08-29 06:18:00,73.5,71.0,29.91,NNE,32,0.0,0.0,91,0.00,,,0.00,TxWx,2013-08-29 11:18:00,
2013-08-29 06:23:00,73.5,70.0,29.91,NNE,32,0.0,0.0,91,0.00,,,0.00,TxWx,2013-08-29 11:23:00,
2013-08-29 06:29:00,73.4,70.0,29.91,NNE,32,0.0,0.0,91,0.00,,,0.00,TxWx,2013-08-29 11:29:00,
2013-08-29 06:34:00,73.3,70.0,29.91,NE,55,0.0,0.6,91,0.00,,,0.00,TxWx,2013-08-29 11:34:00,
2013-08-29 06:39:00,73.3,70.0,29.91,North,10,0.0,0.0,91,0.00,,,0.00,TxWx,2013-08-29 11:39:00,
2013-08-29 06:44:00,73.1,70.0,29.92,NNW,347,0.0,1.2,92,0.00,,,0.00,TxWx,2013-08-29 11:44:00,
2013-08-29 06:49:00,73.0,70.0,29.92,NE,55,0.0,0.6,92,0.00,,,0.00,TxWx,2013-08-29 11:49:00,
2013-08-29 06:54:00,72.9,71.0,29.92,NNW,347,0.6,0.6,92,0.00,,,0.00,TxWx,2013-08-29 11:54:00,
2013-08-29 06:59:00,72.9,71.0,29.92,NNW,347,0.6,0.6,92,0.00,,,0.00,TxWx,2013-08-29 11:59:00,
2013-08-29 07:04:00,72.8,71.0,29.92,NNE,32,0.0,0.6,93,0.00,,,0.00,TxWx,2013-08-29 12:04:00,
2013-08-29 07:09:00,72.8,71.0,29.92,NE,55,0.6,0.6,93,0.00,,,0.00,TxWx,2013-08-29 12:09:00,
2013-08-29 07:14:00,72.7,71.0,29.92,NW,325,1.2,1.2,93,0.00,,,0.00,TxWx,2013-08-29 12:14:00,
2013-08-29 07:19:00,72.6,71.0,29.92,North,10,0.0,0.6,94,0.00,,,0.00,TxWx,2013-08-29 12:19:00,
2013-08-29 07:24:00,72.6,71.0,29.92,NNE,32,0.0,0.0,94,0.00,,,0.00,TxWx,2013-08-29 12:24:00,
2013-08-29 07:29:00,72.7,71.0,29.92,NNE,32,0.0,0.6,94,0.00,,,0.00,TxWx,2013-08-29 12:29:00,
2013-08-29 07:34:00,72.7,71.0,29.91,NNE,32,0.0,0.6,94,0.00,,,0.00,TxWx,2013-08-29 12:34:00,
2013-08-29 07:39:00,72.8,71.0,29.91,NE,55,1.2,1.2,94,0.00,,,0.00,TxWx,2013-08-29 12:39:00,
2013-08-29 07:44:00,72.9,71.0,29.91,South,190,0.6,0.6,94,0.00,,,0.00,TxWx,2013-08-29 12:44:00,
2013-08-29 07:49:00,73.0,71.0,29.91,ENE,77,0.6,1.9,94,0.00,,,0.00,TxWx,2013-08-29 12:49:00,
2013-08-29 07:54:00,73.3,71.0,29.91,WSW,257,0.6,1.9,94,0.00,,,0.00,TxWx,2013-08-29 12:54:00,
2013-08-29 07:59:00,73.5,72.0,29.92,WNW,302,0.6,1.9,94,0.00,,,0.00,TxWx,2013-08-29 12:59:00,
2013-08-29 08:04:00,73.9,72.0,29.91,WSW,257,0.6,1.9,93,0.00,,,0.00,TxWx,2013-08-29 13:04:00,
2013-08-29 08:09:00,74.3,72.0,29.91,South,190,1.2,2.5,93,0.00,,,0.00,TxWx,2013-08-29 13:09:00,
2013-08-29 08:14:00,74.7,73.0,29.91,South,190,1.2,1.9,92,0.00,,,0.00,TxWx,2013-08-29 13:14:00,
2013-08-29 08:19:00,75.0,72.0,29.91,SW,235,0.6,1.2,91,0.00,,,0.00,TxWx,2013-08-29 13:19:00,
2013-08-29 08:24:00,75.4,72.0,29.91,NE,55,0.6,2.5,90,0.00,,,0.00,TxWx,2013-08-29 13:24:00,
2013-08-29 08:29:00,75.7,73.0,29.91,SSW,212,2.5,3.1,90,0.00,,,0.00,TxWx,2013-08-29 13:29:00,
2013-08-29 08:34:00,76.2,72.0,29.91,SSE,167,1.2,3.1,89,0.00,,,0.00,TxWx,2013-08-29 13:34:00,
2013-08-29 08:39:00,76.6,73.0,29.92,West,280,0.6,1.2,88,0.00,,,0.00,TxWx,2013-08-29 13:39:00,
2013-08-29 08:44:00,76.9,73.0,29.92,SW,235,1.2,1.9,87,0.00,,,0.00,TxWx,2013-08-29 13:44:00,
2013-08-29 08:50:00,77.2,73.0,29.92,SSE,167,0.6,1.2,87,0.00,,,0.00,TxWx,2013-08-29 13:50:00,
2013-08-29 08:55:00,77.3,72.0,29.92,West,280,0.6,0.6,86,0.00,,,0.00,TxWx,2013-08-29 13:55:00,
2013-08-29 09:00:00,77.5,73.0,29.92,WSW,257,3.1,3.1,87,0.00,,,0.00,TxWx,2013-08-29 14:00:00,
2013-08-29 09:05:00,77.7,74.0,29.92,North,10,1.2,2.5,87,0.00,,,0.00,TxWx,2013-08-29 14:05:00,
2013-08-29 09:10:00,77.9,74.0,29.92,WNW,302,0.6,1.9,87,0.00,,,0.00,TxWx,2013-08-29 14:10:00,
2013-08-29 09:15:00,78.4,73.0,29.92,SSW,212,3.1,4.3,85,0.00,,,0.00,TxWx,2013-08-29 14:15:00,
2013-08-29 09:20:00,78.8,73.0,29.92,SW,235,1.9,3.7,83,0.00,,,0.00,TxWx,2013-08-29 14:20:00,
2013-08-29 09:25:00,79.3,73.0,29.92,SSW,212,1.2,4.3,82,0.00,,,0.00,TxWx,2013-08-29 14:25:00,
2013-08-29 09:30:00,79.7,74.0,29.92,WSW,257,1.2,2.5,82,0.00,,,0.00,TxWx,2013-08-29 14:30:00,
2013-08-29 09:35:00,80.0,74.0,29.92,SSW,212,1.2,2.5,81,0.00,,,0.00,TxWx,2013-08-29 14:35:00,
2013-08-29 09:40:00,80.5,73.0,29.92,SW,235,6.2,6.2,80,0.00,,,0.00,TxWx,2013-08-29 14:40:00,
2013-08-29 09:45:00,80.8,74.0,29.92,SW,235,2.5,3.1,79,0.00,,,0.00,TxWx,2013-08-29 14:45:00,
2013-08-29 09:50:00,81.1,73.0,29.92,WSW,257,0.6,1.2,77,0.00,,,0.00,TxWx,2013-08-29 14:50:00,
2013-08-29 09:55:00,81.5,72.0,29.92,SSW,212,1.2,3.7,75,0.00,,,0.00,TxWx,2013-08-29 14:55:00,
2013-08-29 10:00:00,81.9,73.0,29.92,West,280,1.9,5.0,76,0.00,,,0.00,TxWx,2013-08-29 15:00:00,
2013-08-29 10:05:00,82.4,74.0,29.92,NE,55,1.2,3.7,76,0.00,,,0.00,TxWx,2013-08-29 15:05:00,
2013-08-29 10:10:00,82.7,74.0,29.92,West,280,3.1,4.3,75,0.00,,,0.00,TxWx,2013-08-29 15:10:00,
2013-08-29 10:15:00,83.0,74.0,29.92,West,280,2.5,3.1,75,0.00,,,0.00,TxWx,2013-08-29 15:15:00,
2013-08-29 10:20:00,83.2,74.0,29.92,SW,235,1.9,3.7,75,0.00,,,0.00,TxWx,2013-08-29 15:20:00,
2013-08-29 10:25:00,83.5,73.0,29.92,SSW,212,1.2,4.3,72,0.00,,,0.00,TxWx,2013-08-29 15:25:00,
2013-08-29 10:30:00,83.7,74.0,29.92,NE,55,1.2,3.1,73,0.00,,,0.00,TxWx,2013-08-29 15:30:00,
2013-08-29 10:35:00,84.1,74.0,29.92,WSW,257,4.3,6.8,71,0.00,,,0.00,TxWx,2013-08-29 15:35:00,
2013-08-29 10:40:00,84.5,74.0,29.92,SW,235,0.6,1.9,72,0.00,,,0.00,TxWx,2013-08-29 15:40:00,
2013-08-29 10:45:00,84.9,74.0,29.92,NNW,347,1.2,7.4,71,0.00,,,0.00,TxWx,2013-08-29 15:45:00,
2013-08-29 10:51:00,85.3,74.0,29.92,SSW,212,1.2,3.1,70,0.00,,,0.00,TxWx,2013-08-29 15:51:00,
2013-08-29 10:56:00,85.7,75.0,29.91,SSE,167,2.5,4.3,69,0.00,,,0.00,TxWx,2013-08-29 15:56:00,
2013-08-29 11:01:00,86.2,74.0,29.91,SSE,167,1.9,3.7,68,0.00,,,0.00,TxWx,2013-08-29 16:01:00,
2013-08-29 11:06:00,86.7,74.0,29.91,SSW,212,3.1,3.1,66,0.00,,,0.00,TxWx,2013-08-29 16:06:00,
2013-08-29 11:11:00,87.2,74.0,29.91,WSW,257,0.6,2.5,67,0.00,,,0.00,TxWx,2013-08-29 16:11:00,
2013-08-29 11:16:00,87.5,74.0,29.91,East,100,0.6,4.3,64,0.00,,,0.00,TxWx,2013-08-29 16:16:00,
2013-08-29 11:21:00,87.9,74.0,29.91,WNW,302,4.3,6.2,64,0.00,,,0.00,TxWx,2013-08-29 16:21:00,
2013-08-29 11:26:00,88.1,73.0,29.91,South,190,3.1,3.7,62,0.00,,,0.00,TxWx,2013-08-29 16:26:00,
2013-08-29 11:31:00,88.4,73.0,29.91,West,280,1.9,4.3,61,0.00,,,0.00,TxWx,2013-08-29 16:31:00,
2013-08-29 11:36:00,88.7,74.0,29.90,WSW,257,5.0,5.6,61,0.00,,,0.00,TxWx,2013-08-29 16:36:00,
2013-08-29 11:41:00,89.2,74.0,29.91,South,190,1.9,4.3,62,0.00,,,0.00,TxWx,2013-08-29 16:41:00,
2013-08-29 11:46:00,89.6,74.0,29.90,West,280,1.2,3.7,60,0.00,,,0.00,TxWx,2013-08-29 16:46:00,
2013-08-29 11:51:00,89.9,73.0,29.90,West,280,5.6,6.2,58,0.00,,,0.00,TxWx,2013-08-29 16:51:00,
2013-08-29 11:56:00,90.2,72.0,29.90,SSW,212,1.9,3.1,57,0.00,,,0.00,TxWx,2013-08-29 16:56:00,
2013-08-29 12:01:00,90.3,72.0,29.90,WSW,257,2.5,6.2,56,0.00,,,0.00,TxWx,2013-08-29 17:01:00,
2013-08-29 12:06:00,90.2,71.0,29.90,WSW,257,5.0,6.8,55,0.00,,,0.00,TxWx,2013-08-29 17:06:00,
2013-08-29 12:11:00,90.5,73.0,29.90,East,100,1.9,4.3,55,0.00,,,0.00,TxWx,2013-08-29 17:11:00,
2013-08-29 12:16:00,90.8,72.0,29.90,WSW,257,2.5,3.1,55,0.00,,,0.00,TxWx,2013-08-29 17:16:00,
2013-08-29 12:21:00,90.7,73.0,29.90,WSW,257,1.9,5.6,56,0.00,,,0.00,TxWx,2013-08-29 17:21:00,
2013-08-29 12:26:00,90.7,73.0,29.90,West,280,2.5,3.7,56,0.00,,,0.00,TxWx,2013-08-29 17:26:00,
2013-08-29 12:32:00,91.0,72.0,29.90,SW,235,1.9,7.4,54,0.00,,,0.00,TxWx,2013-08-29 17:32:00,
2013-08-29 12:37:00,91.2,73.0,29.89,NNW,347,1.2,2.5,55,0.00,,,0.00,TxWx,2013-08-29 17:37:00,
2013-08-29 12:42:00,90.9,71.0,29.89,WNW,302,2.5,7.4,53,0.00,,,0.00,TxWx,2013-08-29 17:42:00,
2013-08-29 12:47:00,91.3,73.0,29.89,East,100,3.1,5.6,56,0.00,,,0.00,TxWx,2013-08-29 17:47:00,
2013-08-29 12:52:00,91.7,73.0,29.89,WNW,302,2.5,4.3,54,0.00,,,0.00,TxWx,2013-08-29 17:52:00,
2013-08-29 12:57:00,91.7,71.0,29.89,South,190,1.9,7.4,52,0.00,,,0.00,TxWx,2013-08-29 17:57:00,
2013-08-29 13:02:00,92.1,72.0,29.88,SW,235,2.5,6.8,52,0.00,,,0.00,TxWx,2013-08-29 18:02:00,
2013-08-29 13:07:00,92.2,71.0,29.88,WSW,257,3.1,3.1,51,0.00,,,0.00,TxWx,2013-08-29 18:07:00,
2013-08-29 13:12:00,92.3,71.0,29.88,SSE,167,3.1,5.0,51,0.00,,,0.00,TxWx,2013-08-29 18:12:00,
2013-08-29 13:17:00,92.5,69.0,29.88,SSE,167,0.6,3.7,48,0.00,,,0.00,TxWx,2013-08-29 18:17:00,
2013-08-29 13:22:00,92.6,71.0,29.88,NNW,347,1.2,1.9,49,0.00,,,0.00,TxWx,2013-08-29 18:22:00,
2013-08-29 13:27:00,92.6,71.0,29.87,SSW,212,2.5,5.0,49,0.00,,,0.00,TxWx,2013-08-29 18:27:00,
2013-08-29 13:32:00,93.0,72.0,29.87,WNW,302,1.9,3.1,51,0.00,,,0.00,TxWx,2013-08-29 18:32:00,
2013-08-29 13:37:00,92.9,70.0,29.87,South,190,1.9,4.3,48,0.00,,,0.00,TxWx,2013-08-29 18:37:00,
2013-08-29 13:42:00,92.8,72.0,29.87,NE,55,1.2,1.9,50,0.00,,,0.00,TxWx,2013-08-29 18:42:00,
2013-08-29 13:47:00,92.9,72.0,29.87,SSE,167,1.9,5.6,50,0.00,,,0.00,TxWx,2013-08-29 18:47:00,
2013-08-29 13:52:00,93.0,72.0,29.87,NW,325,2.5,5.0,51,0.00,,,0.00,TxWx,2013-08-29 18:52:00,
2013-08-29 13:57:00,93.1,71.0,29.87,West,280,3.7,8.0,49,0.00,,,0.00,TxWx,2013-08-29 18:57:00,
2013-08-29 14:02:00,92.9,71.0,29.87,West,280,1.2,4.3,49,0.00,,,0.00,TxWx,2013-08-29 19:02:00,
2013-08-29 14:07:00,92.4,71.0,29.87,WSW,257,4.3,6.2,50,0.00,,,0.00,TxWx,2013-08-29 19:07:00,
2013-08-29 14:12:00,92.3,70.0,29.87,South,190,3.1,3.1,49,0.00,,,0.00,TxWx,2013-08-29 19:12:00,
2013-08-29 14:17:00,91.8,71.0,29.87,NE,55,1.2,4.3,51,0.00,,,0.00,TxWx,2013-08-29 19:17:00,
2013-08-29 14:22:00,91.3,70.0,29.87,West,280,6.2,6.8,50,0.00,,,0.00,TxWx,2013-08-29 19:22:00,
2013-08-29 14:27:00,90.9,71.0,29.87,West,280,2.5,3.1,53,0.00,,,0.00,TxWx,2013-08-29 19:27:00,
2013-08-29 14:32:00,90.9,70.0,29.86,SW,235,1.9,4.3,51,0.00,,,0.00,TxWx,2013-08-29 19:32:00,
2013-08-29 14:37:00,90.8,71.0,29.86,WSW,257,2.5,5.6,53,0.00,,,0.00,TxWx,2013-08-29 19:37:00,
2013-08-29 14:42:00,90.8,71.0,29.86,WNW,302,2.5,5.6,53,0.00,,,0.00,TxWx,2013-08-29 19:42:00,
2013-08-29 14:47:00,91.0,71.0,29.86,WSW,257,2.5,3.1,52,0.00,,,0.00,TxWx,2013-08-29 19:47:00,
2013-08-29 14:53:00,90.8,71.0,29.86,North,10,1.2,4.3,53,0.00,,,0.00,TxWx,2013-08-29 19:53:00,
2013-08-29 14:58:00,90.4,70.0,29.86,SSW,212,3.7,3.7,52,0.00,,,0.00,TxWx,2013-08-29 19:58:00,
2013-08-29 15:03:00,90.1,71.0,29.87,South,190,3.7,3.7,54,0.00,,,0.00,TxWx,2013-08-29 20:03:00,
2013-08-29 15:08:00,89.9,71.0,29.87,WSW,257,1.9,3.1,54,0.00,,,0.00,TxWx,2013-08-29 20:08:00,
2013-08-29 15:13:00,89.9,72.0,29.87,WNW,302,2.5,3.7,55,0.00,,,0.00,TxWx,2013-08-29 20:13:00,
2013-08-29 15:18:00,89.8,71.0,29.87,North,10,0.6,1.9,54,0.00,,,0.00,TxWx,2013-08-29 20:18:00,
2013-08-29 15:23:00,90.1,71.0,29.87,ENE,77,1.2,3.7,55,0.00,,,0.00,TxWx,2013-08-29 20:23:00,
2013-08-29 15:28:00,90.5,73.0,29.86,WSW,257,2.5,3.1,56,0.00,,,0.00,TxWx,2013-08-29 20:28:00,
2013-08-29 15:33:00,91.1,73.0,29.86,ESE,122,2.5,3.1,56,0.00,,,0.00,TxWx,2013-08-29 20:33:00,
2013-08-29 15:38:00,91.1,71.0,29.86,WSW,257,2.5,3.1,53,0.00,,,0.00,TxWx,2013-08-29 20:38:00,
2013-08-29 15:43:00,91.1,71.0,29.86,WSW,257,1.9,1.9,52,0.00,,,0.00,TxWx,2013-08-29 20:43:00,
2013-08-29 15:48:00,91.1,71.0,29.86,SW,235,3.1,3.1,53,0.00,,,0.00,TxWx,2013-08-29 20:48:00,
2013-08-29 15:53:00,91.5,73.0,29.85,NNW,347,2.5,2.5,54,0.00,,,0.00,TxWx,2013-08-29 20:53:00,
2013-08-29 15:58:00,91.8,72.0,29.85,SW,235,3.7,5.0,53,0.00,,,0.00,TxWx,2013-08-29 20:58:00,
2013-08-29 16:03:00,91.9,70.0,29.85,SSE,167,3.7,3.7,50,0.00,,,0.00,TxWx,2013-08-29 21:03:00,
2013-08-29 16:08:00,92.1,69.0,29.85,SW,235,3.7,8.0,48,0.00,,,0.00,TxWx,2013-08-29 21:08:00,
2013-08-29 16:13:00,92.4,70.0,29.85,West,280,1.9,6.2,49,0.00,,,0.00,TxWx,2013-08-29 21:13:00,
2013-08-29 16:18:00,92.5,68.0,29.85,SSW,212,1.9,3.7,46,0.00,,,0.00,TxWx,2013-08-29 21:18:00,
2013-08-29 16:23:00,92.5,71.0,29.85,SSW,212,4.3,5.0,49,0.00,,,0.00,TxWx,2013-08-29 21:23:00,
2013-08-29 16:28:00,92.6,70.0,29.85,West,280,1.2,2.5,48,0.00,,,0.00,TxWx,2013-08-29 21:28:00,
2013-08-29 16:33:00,92.9,71.0,29.85,East,100,1.9,3.7,49,0.00,,,0.00,TxWx,2013-08-29 21:33:00,
2013-08-29 16:38:00,92.9,71.0,29.85,South,190,1.2,2.5,49,0.00,,,0.00,TxWx,2013-08-29 21:38:00,
2013-08-29 16:43:00,93.0,70.0,29.85,WSW,257,3.1,3.1,48,0.00,,,0.00,TxWx,2013-08-29 21:43:00,
2013-08-29 16:48:00,93.0,70.0,29.85,WSW,257,1.2,5.6,48,0.00,,,0.00,TxWx,2013-08-29 21:48:00,
2013-08-29 16:53:00,93.0,70.0,29.85,WSW,257,1.9,3.1,48,0.00,,,0.00,TxWx,2013-08-29 21:53:00,
2013-08-29 16:58:00,93.1,69.0,29.85,WSW,257,0.6,6.8,47,0.00,,,0.00,TxWx,2013-08-29 21:58:00,
2013-08-29 17:03:00,93.1,71.0,29.85,West,280,0.6,3.1,49,0.00,,,0.00,TxWx,2013-08-29 22:03:00,
2013-08-29 17:09:00,93.3,69.0,29.84,SSE,167,2.5,3.7,46,0.00,,,0.00,TxWx,2013-08-29 22:09:00,
2013-08-29 17:14:00,93.2,70.0,29.85,West,280,2.5,4.3,48,0.00,,,0.00,TxWx,2013-08-29 22:14:00,
2013-08-29 17:19:00,93.2,70.0,29.85,NW,325,1.9,4.3,48,0.00,,,0.00,TxWx,2013-08-29 22:19:00,
2013-08-29 17:24:00,93.1,70.0,29.85,SSE,167,1.2,8.0,48,0.00,,,0.00,TxWx,2013-08-29 22:24:00,
2013-08-29 17:29:00,93.0,71.0,29.85,NW,325,1.9,4.3,50,0.00,,,0.00,TxWx,2013-08-29 22:29:00,
2013-08-29 17:34:00,92.8,71.0,29.84,WSW,257,1.9,5.0,49,0.00,,,0.00,TxWx,2013-08-29 22:34:00,
2013-08-29 17:39:00,92.8,72.0,29.85,ESE,122,1.2,2.5,51,0.00,,,0.00,TxWx,2013-08-29 22:39:00,
2013-08-29 17:44:00,92.6,71.0,29.85,South,190,1.9,2.5,49,0.00,,,0.00,TxWx,2013-08-29 22:44:00,
2013-08-29 17:49:00,92.5,70.0,29.85,SW,235,1.9,3.1,49,0.00,,,0.00,TxWx,2013-08-29 22:49:00,
2013-08-29 17:54:00,92.1,70.0,29.84,WSW,257,2.5,3.1,50,0.00,,,0.00,TxWx,2013-08-29 22:54:00,
2013-08-29 17:59:00,92.1,71.0,29.84,SSW,212,1.2,3.7,50,0.00,,,0.00,TxWx,2013-08-29 22:59:00,
2013-08-29 18:04:00,91.8,71.0,29.85,ESE,122,1.2,4.3,51,0.00,,,0.00,TxWx,2013-08-29 23:04:00,
2013-08-29 18:09:00,91.6,71.0,29.84,East,100,3.1,5.0,51,0.00,,,0.00,TxWx,2013-08-29 23:09:00,
2013-08-29 18:14:00,91.4,70.0,29.84,West,280,1.9,3.1,50,0.00,,,0.00,TxWx,2013-08-29 23:14:00,
2013-08-29 18:19:00,91.1,69.0,29.84,WSW,257,1.9,3.7,49,0.00,,,0.00,TxWx,2013-08-29 23:19:00,
2013-08-29 18:24:00,90.7,69.0,29.84,WSW,257,1.9,3.7,50,0.00,,,0.00,TxWx,2013-08-29 23:24:00,
2013-08-29 18:29:00,90.5,68.0,29.85,West,280,0.6,3.1,49,0.00,,,0.00,TxWx,2013-08-29 23:29:00,
2013-08-29 18:34:00,90.1,68.0,29.85,SSW,212,2.5,3.1,49,0.00,,,0.00,TxWx,2013-08-29 23:34:00,
2013-08-29 18:39:00,90.1,68.0,29.85,SSE,167,1.2,2.5,49,0.00,,,0.00,TxWx,2013-08-29 23:39:00,
2013-08-29 18:44:00,90.1,68.0,29.85,WSW,257,1.9,5.6,50,0.00,,,0.00,TxWx,2013-08-29 23:44:00,
2013-08-29 18:49:00,89.8,70.0,29.85,WSW,257,1.2,4.3,52,0.00,,,0.00,TxWx,2013-08-29 23:49:00,
2013-08-29 18:54:00,89.6,70.0,29.85,NE,55,3.7,3.7,52,0.00,,,0.00,TxWx,2013-08-29 23:54:00,
2013-08-29 18:59:00,89.6,70.0,29.84,West,280,1.2,1.9,52,0.00,,,0.00,TxWx,2013-08-29 23:59:00,
2013-08-29 19:04:00,89.3,69.0,29.85,West,280,0.6,1.9,53,0.00,,,0.00,TxWx,2013-08-30 00:04:00,
2013-08-29 19:09:00,89.1,70.0,29.85,NW,325,1.9,1.9,54,0.00,,,0.00,TxWx,2013-08-30 00:09:00,
2013-08-29 19:14:00,88.9,70.0,29.85,WSW,257,1.2,3.1,54,0.00,,,0.00,TxWx,2013-08-30 00:14:00,
2013-08-29 19:20:00,88.8,70.0,29.85,WNW,302,1.2,1.9,55,0.00,,,0.00,TxWx,2013-08-30 00:20:00,
2013-08-29 19:25:00,88.6,71.0,29.84,NE,55,0.6,1.2,56,0.00,,,0.00,TxWx,2013-08-30 00:25:00,
2013-08-29 19:30:00,88.3,71.0,29.85,ESE,122,1.2,1.2,57,0.00,,,0.00,TxWx,2013-08-30 00:30:00,
2013-08-29 19:35:00,88.2,71.0,29.85,SW,235,1.2,1.2,57,0.00,,,0.00,TxWx,2013-08-30 00:35:00,
2013-08-29 19:40:00,88.1,71.0,29.85,East,100,0.6,1.2,57,0.00,,,0.00,TxWx,2013-08-30 00:40:00,
2013-08-29 19:45:00,87.9,71.0,29.85,NE,55,0.0,1.2,58,0.00,,,0.00,TxWx,2013-08-30 00:45:00,
2013-08-29 19:50:00,87.8,71.0,29.85,NNE,32,0.0,0.6,58,0.00,,,0.00,TxWx,2013-08-30 00:50:00,
2013-08-29 19:55:00,87.7,71.0,29.85,NE,55,0.6,0.6,58,0.00,,,0.00,TxWx,2013-08-30 00:55:00,
2013-08-29 20:00:00,87.5,70.0,29.85,NE,55,0.0,0.6,58,0.00,,,0.00,TxWx,2013-08-30 01:00:00,
2013-08-29 20:05:00,87.3,71.0,29.85,North,10,0.0,0.6,59,0.00,,,0.00,TxWx,2013-08-30 01:05:00,
2013-08-29 20:10:00,87.1,71.0,29.85,NNE,32,0.0,0.6,60,0.00,,,0.00,TxWx,2013-08-30 01:10:00,
2013-08-29 20:15:00,86.9,71.0,29.85,NNE,32,0.0,0.6,60,0.00,,,0.00,TxWx,2013-08-30 01:15:00,
2013-08-29 20:20:00,86.7,72.0,29.85,NE,55,0.0,0.6,61,0.00,,,0.00,TxWx,2013-08-30 01:20:00,
2013-08-29 20:25:00,86.4,71.0,29.86,NE,55,0.6,0.6,61,0.00,,,0.00,TxWx,2013-08-30 01:25:00,
2013-08-29 20:30:00,86.3,71.0,29.86,NE,55,0.6,0.6,62,0.00,,,0.00,TxWx,2013-08-30 01:30:00,
2013-08-29 20:35:00,86.0,71.0,29.86,NE,55,0.0,0.6,62,0.00,,,0.00,TxWx,2013-08-30 01:35:00,
2013-08-29 20:40:00,85.8,72.0,29.86,NNE,32,0.0,0.6,63,0.00,,,0.00,TxWx,2013-08-30 01:40:00,
2013-08-29 20:45:00,85.5,72.0,29.86,NNE,32,0.0,0.6,64,0.00,,,0.00,TxWx,2013-08-30 01:45:00,
2013-08-29 20:50:00,85.2,72.0,29.86,NNE,32,0.0,0.0,65,0.00,,,0.00,TxWx,2013-08-30 01:50:00,
2013-08-29 20:56:00,85.0,72.0,29.86,North,10,0.0,1.2,65,0.00,,,0.00,TxWx,2013-08-30 01:56:00,
2013-08-29 21:01:00,84.4,72.0,29.86,WNW,302,0.6,1.2,67,0.00,,,0.00,TxWx,2013-08-30 02:01:00,
2013-08-29 21:06:00,84.0,72.0,29.86,WNW,302,0.0,1.2,68,0.00,,,0.00,TxWx,2013-08-30 02:06:00,
2013-08-29 21:11:00,83.6,73.0,29.86,WSW,257,0.6,1.9,69,0.00,,,0.00,TxWx,2013-08-30 02:11:00,
2013-08-29 21:16:00,83.3,72.0,29.86,SSW,212,0.6,1.9,69,0.00,,,0.00,TxWx,2013-08-30 02:16:00,
2013-08-29 21:21:00,83.2,72.0,29.86,SW,235,1.2,2.5,70,0.00,,,0.00,TxWx,2013-08-30 02:21:00,
2013-08-29 21:26:00,83.1,72.0,29.86,NNW,347,0.6,1.2,70,0.00,,,0.00,TxWx,2013-08-30 02:26:00,
2013-08-29 21:31:00,83.1,72.0,29.86,NW,325,0.6,1.2,70,0.00,,,0.00,TxWx,2013-08-30 02:31:00,
2013-08-29 21:36:00,83.1,72.0,29.86,NNW,347,0.6,1.2,70,0.00,,,0.00,TxWx,2013-08-30 02:36:00,
2013-08-29 21:41:00,83.1,72.0,29.86,WNW,302,0.6,1.2,70,0.00,,,0.00,TxWx,2013-08-30 02:41:00,
2013-08-29 21:46:00,83.1,72.0,29.86,SSW,212,1.2,1.9,70,0.00,,,0.00,TxWx,2013-08-30 02:46:00,
2013-08-29 21:51:00,83.1,72.0,29.86,NNE,32,0.0,0.6,70,0.00,,,0.00,TxWx,2013-08-30 02:51:00,
2013-08-29 21:56:00,83.0,72.0,29.86,ENE,77,0.0,0.6,70,0.00,,,0.00,TxWx,2013-08-30 02:56:00,
2013-08-29 22:01:00,83.0,72.0,29.86,NNE,32,0.0,0.6,70,0.00,,,0.00,TxWx,2013-08-30 03:01:00,
2013-08-29 22:06:00,82.9,72.0,29.86,East,100,0.6,1.2,70,0.00,,,0.00,TxWx,2013-08-30 03:06:00,
2013-08-29 22:11:00,82.8,72.0,29.86,NNE,32,0.0,0.6,70,0.00,,,0.00,TxWx,2013-08-30 03:11:00,
2013-08-29 22:16:00,82.7,72.0,29.86,North,10,0.0,0.6,70,0.00,,,0.00,TxWx,2013-08-30 03:16:00,
2013-08-29 22:21:00,82.7,72.0,29.86,East,100,0.0,0.6,70,0.00,,,0.00,TxWx,2013-08-30 03:21:00,
2013-08-29 22:26:00,82.6,72.0,29.86,North,10,0.0,0.6,71,0.00,,,0.00,TxWx,2013-08-30 03:26:00,
2013-08-29 22:31:00,82.4,72.0,29.86,East,100,0.6,0.6,72,0.00,,,0.00,TxWx,2013-08-30 03:31:00,
2013-08-29 22:36:00,82.3,72.0,29.86,South,190,0.6,1.2,72,0.00,,,0.00,TxWx,2013-08-30 03:36:00,
2013-08-29 22:41:00,82.1,72.0,29.86,NE,55,0.6,1.2,72,0.00,,,0.00,TxWx,2013-08-30 03:41:00,
2013-08-29 22:46:00,82.1,72.0,29.86,East,100,0.6,1.2,72,0.00,,,0.00,TxWx,2013-08-30 03:46:00,
2013-08-29 22:52:00,82.0,72.0,29.86,SSW,212,0.0,1.2,73,0.00,,,0.00,TxWx,2013-08-30 03:52:00,
2013-08-29 22:57:00,81.9,72.0,29.86,North,10,0.6,1.2,73,0.00,,,0.00,TxWx,2013-08-30 03:57:00,
2013-08-29 23:01:00,81.8,72.0,29.86,NE,55,0.0,0.6,73,0.00,,,0.00,TxWx,2013-08-30 04:01:00,
2013-08-29 23:02:00,81.8,72.0,29.86,NNE,32,0.0,1.2,73,0.00,,,0.00,TxWx,2013-08-30 04:02:00,
2013-08-29 23:04:00,81.8,73.0,29.86,WNW,302,0.6,1.2,74,0.00,,,0.00,TxWx,2013-08-30 04:04:00,
2013-08-29 23:06:00,81.7,73.0,29.86,NNE,32,0.6,0.6,74,0.00,,,0.00,TxWx,2013-08-30 04:06:00,
2013-08-29 23:07:00,81.7,73.0,29.86,South,190,0.6,0.6,74,0.00,,,0.00,TxWx,2013-08-30 04:07:00,
2013-08-29 23:12:00,81.5,73.0,29.86,NNW,347,0.6,0.6,74,0.00,,,0.00,TxWx,2013-08-30 04:12:00,
2013-08-29 23:17:00,81.5,72.0,29.86,NNW,347,0.6,1.2,74,0.00,,,0.00,TxWx,2013-08-30 04:17:00,
2013-08-29 23:22:00,81.3,72.0,29.86,WNW,302,0.6,1.2,75,0.00,,,0.00,TxWx,2013-08-30 04:22:00,
2013-08-29 23:27:00,81.3,72.0,29.86,SSE,167,0.6,1.9,75,0.00,,,0.00,TxWx,2013-08-30 04:27:00,
2013-08-29 23:32:00,81.1,72.0,29.86,South,190,2.5,4.3,75,0.00,,,0.00,TxWx,2013-08-30 04:32:00,
2013-08-29 23:37:00,81.0,72.0,29.86,NE,55,0.0,1.2,76,0.00,,,0.00,TxWx,2013-08-30 04:37:00,
2013-08-29 23:42:00,80.9,72.0,29.86,WSW,257,1.2,2.5,75,0.00,,,0.00,TxWx,2013-08-30 04:42:00,
2013-08-29 23:47:00,80.9,72.0,29.86,NNE,32,0.0,1.2,76,0.00,,,0.00,TxWx,2013-08-30 04:47:00,
2013-08-29 23:52:00,80.9,72.0,29.86,West,280,0.0,2.5,76,0.00,,,0.00,TxWx,2013-08-30 04:52:00,
2013-08-29 23:57:00,80.8,72.0,29.86,SW,235,1.2,1.9,76,0.00,,,0.00,TxWx,2013-08-30 04:57:00,